Regional Weather Roundup
Issued by NWS

Home | Current Version | Previous Version | Graphics & Text | Print | Product List | Glossary Off
Versions: 1 2 3 4 5 6 7 8 9 10 11 12 13 14 15 16 17 18 19 20 21 22 23 24 25 26 27 28 29 30 31 32 33 34 35 36 37 38 39 40 41 42 43 44 45 46 47 48 49 50

000
ASUS43 KDTX 260710
RWRMI
MICHIGAN HOURLY REGIONAL WEATHER ROUNDUP
NATIONAL WEATHER SERVICE DETROIT/PONTIAC MI
300 AM EDT SAT JUL 26 2014

NOTE: "FAIR" INDICATES FEW OR NO CLOUDS BELOW 12,000 FEET WITH NO
SIGNIFICANT WEATHER AND/OR OBSTRUCTION TO VISIBILITY.

MIZ047>049-052>055-059>063-066>070-074>076-081>083-260800-
SOUTHEAST LOWER MICHIGAN

CITY           SKY/WX    TMP DP  RH WIND       PRES   REMARKS
ADRIAN         CLEAR     59  58  96 SW3       29.96F
ALMA           CLEAR     60  56  88 S5        29.92F
ANN ARBOR      CLEAR     54  52  93 CALM      29.95F FOG
BAD AXE        CLOUDY    65  56  72 SW6       29.92S
CARO           CLOUDY    65  60  84 CALM      29.92F
DETROIT CITY   CLEAR     67  56  67 SW5       29.95F
DETROIT        PTCLDY    62  57  83 S6        29.96F
FLINT          CLEAR     63  55  75 SW5       29.94F
GROSSE ILE     PTCLDY    68  61  77 SW6       29.94F
HILLSDALE      CLEAR     60  59  99 CALM      29.96F
HOWELL         CLEAR     61  56  84 S3        29.95F

CITY           SKY/WX    TMP DP  RH WIND       PRES   REMARKS
JACKSON        CLEAR     61  57  87 S3        29.95F
LAMBERTVILLE   CLEAR     61  59  94 SW3       29.96F
LANSING        CLEAR     62  57  83 S6        29.94F
LAPEER         CLOUDY    62  55  76 CALM      29.95S
MASON          CLEAR     60  56  88 S3        29.94F
MONROE         FOG       61  59  94 CALM      29.94F VSB 3/4
MT. CLEMENS    PTCLDY    65  54  67 SW5       29.94F
PONTIAC        CLEAR     63  52  67 S3        29.95F
PORT HOPE        N/A     67  56  67 SW7       29.89F
PORT HURON     MOCLDY    63  55  77 CALM      29.95S
TRI CITIES     CLOUDY    66  57  72 SW8       29.92F
TROY           CLEAR     65  53  65 SW5       29.96F
SAGINAW HB     CLEAR     64  55  72 SW7       29.92S
$$
MIZ043>046-050>051-056>058-064>065-071>073-077>080-260800-
SOUTHWEST LOWER MICHIGAN

CITY           SKY/WX    TMP DP  RH WIND       PRES   REMARKS
BATTLE CREEK   CLEAR     62  57  83 S7        29.94F
BENTON HARBOR  CLEAR     61  57  87 SE3       29.92F
BIG RAPIDS     PTCLDY    60  59  95 S3        29.90F
COLDWATER      CLEAR     60  58  92 CALM      29.95F
FREMONT        FAIR      60  59  96 S3        29.90F
HOLLAND        CLEAR     64  59  83 S6        29.92F
GRAND RAPIDS   CLEAR     63  59  87 S5        29.92F
IONIA          FAIR      62  57  85 SW6       29.92S
KALAMAZOO      CLEAR     63  58  83 S5        29.94F
LUDINGTON      CLOUDY    67  62  84 SW12      29.88F
MARSHALL       CLEAR     60  57  91 S9        29.94S
MOUNT PLEASANT CLEAR     63  58  82 S5        29.91F
MUSKEGON       PTCLDY    66  60  81 SW10      29.90F
SOUTH HAVEN    CLEAR     63  60  90 S3        29.92F
$$
MIZ016>042-260800-
NORTHERN LOWER MICHIGAN

CITY           SKY/WX    TMP DP  RH WIND       PRES   REMARKS
ALPENA         CLOUDY    64  59  83 S3        29.87F
BEAVER ISLAND  CLOUDY    62  58  86 SW12G17   29.85R
BELLAIRE       CLOUDY    67  57  69 SW3       29.86R
CADILLAC       PTCLDY    62  58  88 SW8       29.88F
CHARLEVOIX     CLOUDY    67  58  72 SW7       29.88R
FRANKFORT      CLOUDY    67  58  72 SW7       29.86S
GAYLORD        CLOUDY    62  55  77 SW8       29.87F
GRAYLING       CLOUDY    64  58  81 S5        29.88F
HARBOR SPRINGS CLOUDY    67  59  74 SW6       29.85S
HOUGHTON LAKE  CLOUDY    64  57  78 SW9       29.90F
MANISTEE       PTCLDY    63  55  77 CALM      29.88S
OSCODA         CLOUDY    67  58  71 SW5       29.88S
PELLSTON       CLOUDY    65  59  81 CALM      29.85S
ROGERS CITY    CLOUDY    64  59  82 S5        29.86F
TRAVERSE CITY  PTCLDY    66  56  70 CALM      29.84F
$$
MIZ007>008-015-260800-
EASTERN UPPER MICHIGAN

CITY           SKY/WX    TMP DP  RH WIND       PRES   REMARKS
KINROSS        CLOUDY    61  61 100 S5        29.84S
MACKINAC ISLAN CLOUDY    63  58  83 SW6       29.84S
NEWBERRY       MOCLDY    57  57  98 SW7       29.83R FOG
S. S. MARIE    CLOUDY    62  58  86 SW5       29.83S
MUNISING         N/A     66  59  78 S7        29.78F
$$
MIZ004>006-011>014-085-260800-
CENTRAL UPPER MICHIGAN

CITY           SKY/WX    TMP DP  RH WIND       PRES   REMARKS
MANISTIQUE     CLOUDY    58  57  96 S6        29.81F FOG
ESCANABA       CLOUDY    64  59  82 SW5       29.82S
MENOMINEE      CLOUDY    66  61  82 SW7       29.82F
SAWYER-GWINN   CLOUDY    64  61  90 SW5       29.81F
$$
MIZ001>003-009>011-084-260800-
WESTERN UPPER MICHIGAN

CITY           SKY/WX    TMP DP  RH WIND       PRES   REMARKS
IRON MOUNTAIN  MOCLDY    64  61  90 S3        29.81F
HOUGHTON       CLOUDY    65  63  93 CALM      29.77F
COPPER HARBOR    N/A     65  61  87 CALM      29.76F
$$

ABBREVIATIONS USED IN REMARKS
   TC - TEMPERATURE IN CELSIUS
  WCI - WIND CHILL INDEX
   HX - HEAT INDEX
  VSB - VISIBILITY



USA.gov is the U.S. government's official web portal to all federal, state and local government web resources and services.